Tracking 21076 objects as of 10-Aug-2020
HD Live streaming from Space Station
objects crossing your sky now
Track the most recent launched group of Starlink satellites

DMSP 5D-2 F11 DEB

Track DMSP 5D-2 F11 DEB now!
10-day predictions


NORAD ID: 28332
Int'l Code: 1991-082AV
Perigee: 510.8 km
Apogee: 518.1 km
Inclination: 98.7 °
Period: 94.8 minutes
Semi major axis: 6885 km
RCS: 0.0108 m2 (small)
Launch date: November 28, 1991
Source: United States (US)
Launch site: AIR FORCE WESTERN TEST RANGE (AFWTR)

Note: This is SATELLITE DEBRIS
aabbcc
Your satellite tracking list
Your tracking list is empty




NASA's NSSDC Master Catalog

Two Line Element Set (TLE):
1 28332U 91082AV  20222.44704474  .00029623  00000-0  13941-2 0  9992
2 28332  98.7480 121.9352 0005294 270.1955  89.8669 15.19500865855518
Source of the keplerian elements: AFSPC